When you browse on this site, cookies collect data to enhance your experience and personalize the content and advertising you see.
Visit our Privacy Policy to learn more. By continuing to use the site, you agree to this use of cookies and data.

Hourly Weather Tulchin

Today, 3 August, Monday

Time Temperature Precipitation Wind Pressure Humidity
00:00 +13°C° 0 mm 0 mps 741 mmHg 85%
01:00 +13°C° 0 mm 0 mps 741 mmHg 85%
02:00 +12°C° 0 mm 0 mps 741 mmHg 86%
03:00 +12°C° 0 mm 0 mps 741 mmHg 86%
04:00 +12°C° 0 mm 0 mps 741 mmHg 87%
05:00 +13°C° 0 mm 1 mps 741 mmHg 87%
06:00 +15°C° 0 mm 1 mps 741 mmHg 80%
07:00 +17°C° 0 mm 2 mps 742 mmHg 74%
08:00 +19°C° 0 mm 2 mps 742 mmHg 66%
09:00 +20°C° 0 mm 2 mps 742 mmHg 60%
10:00 +22°C° 0 mm 3 mps 742 mmHg 55%
11:00 +24°C° 0 mm 3 mps 742 mmHg 50%
12:00 +25°C° 0 mm 3 mps 742 mmHg 48%
13:00 +25°C° 0 mm 3 mps 741 mmHg 45%
14:00 +26°C° 0 mm 3 mps 741 mmHg 43%
15:00 +26°C° 0 mm 4 mps 741 mmHg 44%
16:00 +26°C° 0 mm 4 mps 740 mmHg 45%
17:00 +26°C° 0 mm 4 mps 740 mmHg 45%
18:00 +23°C° 0 mm 4 mps 740 mmHg 50%
19:00 +21°C° 0 mm 4 mps 740 mmHg 54%
20:00 +19°C° 0 mm 4 mps 740 mmHg 59%
21:00 +19°C° 0 mm 4 mps 740 mmHg 60%
22:00 +18°C° 0 mm 4 mps 740 mmHg 60%
23:00 +17°C° 0 mm 4 mps 740 mmHg 61%

Tomorrow, 4 August, Tuesday

Time Temperature Precipitation Wind Pressure Humidity
00:00 +17°C° 0 mm 3 mps 740 mmHg 63%
01:00 +16°C° 0 mm 3 mps 740 mmHg 66%
02:00 +16°C° 0 mm 3 mps 740 mmHg 68%
03:00 +14°C° 0 mm 3 mps 740 mmHg 69%
04:00 +14°C° 0 mm 3 mps 740 mmHg 70%
05:00 +14°C° 0 mm 3 mps 739 mmHg 71%
06:00 +17°C° 0 mm 3 mps 740 mmHg 66%
07:00 +19°C° 0 mm 4 mps 740 mmHg 61%
08:00 +21°C° 0 mm 5 mps 740 mmHg 56%
09:00 +22°C° 0 mm 5 mps 740 mmHg 52%
10:00 +24°C° 0 mm 6 mps 740 mmHg 47%
11:00 +26°C° 0 mm 6 mps 741 mmHg 43%
12:00 +27°C° 0 mm 6 mps 740 mmHg 42%
13:00 +28°C° 0 mm 6 mps 740 mmHg 41%
14:00 +28°C° 0 mm 6 mps 740 mmHg 39%
15:00 +28°C° 0 mm 5 mps 740 mmHg 40%
16:00 +28°C° 0 mm 5 mps 740 mmHg 41%
17:00 +28°C° 0 mm 4 mps 739 mmHg 42%
18:00 +26°C° 0 mm 4 mps 739 mmHg 45%
19:00 +24°C° 0 mm 3 mps 739 mmHg 49%
20:00 +21°C° 0 mm 3 mps 739 mmHg 53%
21:00 +21°C° 0 mm 3 mps 740 mmHg 54%
22:00 +20°C° 0 mm 2 mps 740 mmHg 56%
23:00 +19°C° 0 mm 2 mps 740 mmHg 58%

Day after tomorrow, 5 August, Wednesday

Time Temperature Precipitation Wind Pressure Humidity
00:00 +19°C° 0 mm 2 mps 740 mmHg 59%
01:00 +18°C° 0 mm 2 mps 740 mmHg 61%
02:00 +18°C° 0 mm 2 mps 740 mmHg 62%
03:00 +17°C° 0 mm 2 mps 740 mmHg 63%
04:00 +18°C° 0 mm 1 mps 740 mmHg 64%
05:00 +18°C° 0 mm 1 mps 740 mmHg 65%
06:00 +20°C° 0 mm 1 mps 741 mmHg 61%
07:00 +22°C° 0 mm 1 mps 741 mmHg 58%
08:00 +24°C° 0 mm 2 mps 742 mmHg 54%
09:00 +26°C° 0 mm 2 mps 742 mmHg 50%
10:00 +27°C° 0 mm 3 mps 742 mmHg 46%
11:00 +29°C° 0 mm 3 mps 743 mmHg 42%
12:00 +29°C° 0 mm 3 mps 742 mmHg 40%
13:00 +30°C° 0 mm 3 mps 742 mmHg 38%
14:00 +31°C° 0 mm 3 mps 742 mmHg 35%
15:00 +30°C° 0 mm 3 mps 742 mmHg 37%
16:00 +30°C° 0 mm 3 mps 742 mmHg 38%
17:00 +30°C° 0 mm 3 mps 742 mmHg 39%
18:00 +28°C° 0 mm 3 mps 742 mmHg 45%
19:00 +26°C° 0 mm 3 mps 742 mmHg 50%
20:00 +24°C° 0 mm 3 mps 742 mmHg 56%
21:00 +22°C° 0 mm 3 mps 742 mmHg 57%
22:00 +21°C° 0 mm 3 mps 743 mmHg 59%
23:00 +20°C° 0 mm 3 mps 743 mmHg 60%

6 August, Thursday

Time Temperature Precipitation Wind Pressure Humidity
00:00 +19°C° 0 mm 3 mps 743 mmHg 61%
01:00 +19°C° 0 mm 3 mps 743 mmHg 62%
02:00 +18°C° 0 mm 3 mps 743 mmHg 63%
03:00 +18°C° 0 mm 3 mps 743 mmHg 66%
04:00 +17°C° 0 mm 3 mps 743 mmHg 69%
05:00 +17°C° 0 mm 3 mps 744 mmHg 72%
06:00 +19°C° 0 mm 3 mps 744 mmHg 68%
07:00 +21°C° 0 mm 3 mps 744 mmHg 64%
08:00 +24°C° 0 mm 3 mps 744 mmHg 60%
09:00 +25°C° 0 mm 3 mps 745 mmHg 54%
10:00 +27°C° 0 mm 4 mps 745 mmHg 49%
11:00 +29°C° 0 mm 4 mps 745 mmHg 44%
12:00 +29°C° 0 mm 4 mps 745 mmHg 43%
13:00 +30°C° 0 mm 5 mps 745 mmHg 42%
14:00 +30°C° 0 mm 5 mps 745 mmHg 41%
15:00 +30°C° 0 mm 5 mps 744 mmHg 43%
16:00 +29°C° 0 mm 5 mps 744 mmHg 44%
17:00 +29°C° 0 mm 5 mps 744 mmHg 46%
18:00 +27°C° 0 mm 4 mps 744 mmHg 53%
19:00 +25°C° 0 mm 4 mps 744 mmHg 60%
20:00 +22°C° 0 mm 3 mps 744 mmHg 66%
21:00 +21°C° 0 mm 3 mps 745 mmHg 68%
22:00 +20°C° 0 mm 3 mps 745 mmHg 71%
23:00 +20°C° 0 mm 3 mps 745 mmHg 73%

7 August, Friday

Time Temperature Precipitation Wind Pressure Humidity
00:00 +19°C° 0 mm 3 mps 745 mmHg 76%
01:00 +19°C° 0 mm 3 mps 745 mmHg 79%
02:00 +18°C° 0 mm 3 mps 745 mmHg 82%
03:00 +18°C° 0 mm 3 mps 745 mmHg 83%
04:00 +17°C° 0 mm 3 mps 745 mmHg 85%
05:00 +17°C° 0 mm 3 mps 745 mmHg 86%
06:00 +19°C° 0 mm 4 mps 745 mmHg 79%
07:00 +21°C° 0 mm 4 mps 745 mmHg 72%
08:00 +23°C° 0 mm 4 mps 745 mmHg 65%
09:00 +25°C° 0 mm 4 mps 745 mmHg 60%
10:00 +27°C° 0 mm 5 mps 745 mmHg 54%
11:00 +28°C° 0 mm 5 mps 745 mmHg 49%
12:00 +29°C° 0 mm 5 mps 745 mmHg 47%
13:00 +30°C° 0 mm 5 mps 745 mmHg 46%
14:00 +30°C° 0 mm 5 mps 744 mmHg 44%
15:00 +30°C° 0 mm 5 mps 744 mmHg 46%
16:00 +30°C° 0 mm 5 mps 744 mmHg 47%
17:00 +29°C° 0 mm 5 mps 744 mmHg 49%
18:00 +27°C° 0 mm 4 mps 744 mmHg 57%
19:00 +26°C° 0 mm 4 mps 744 mmHg 65%
20:00 +23°C° 0 mm 4 mps 744 mmHg 72%
21:00 +22°C° 0 mm 4 mps 744 mmHg 78%
22:00 +21°C° 0 mm 4 mps 744 mmHg 83%
23:00 +20°C° 0 mm 4 mps 744 mmHg 89%

8 August, Saturday

Time Temperature Precipitation Wind Pressure Humidity
00:00 +20°C° 0 mm 4 mps 744 mmHg 90%
01:00 +20°C° 0 mm 4 mps 743 mmHg 92%
02:00 +19°C° 0 mm 4 mps 743 mmHg 93%
03:00 +19°C° 0 mm 4 mps 743 mmHg 93%
04:00 +18°C° 0 mm 4 mps 743 mmHg 93%
05:00 +18°C° 0 mm 4 mps 743 mmHg 93%
06:00 +19°C° 0 mm 4 mps 743 mmHg 89%
07:00 +20°C° 0 mm 5 mps 743 mmHg 85%
08:00 +21°C° 0 mm 5 mps 743 mmHg 80%
09:00 +22°C° 0.1 mm 5 mps 743 mmHg 76%
10:00 +25°C° 0.1 mm 5 mps 743 mmHg 72%
11:00 +26°C° 0.1 mm 5 mps 743 mmHg 68%
12:00 +27°C° 0.3 mm 5 mps 743 mmHg 65%
13:00 +27°C° 0.3 mm 5 mps 742 mmHg 61%
14:00 +28°C° 0.3 mm 5 mps 742 mmHg 57%
15:00 +28°C° 0.3 mm 5 mps 742 mmHg 58%
16:00 +27°C° 0.3 mm 6 mps 742 mmHg 58%
17:00 +27°C° 0.3 mm 6 mps 741 mmHg 58%
18:00 +25°C° 0 mm 5 mps 741 mmHg 63%
19:00 +23°C° 0 mm 4 mps 741 mmHg 67%
20:00 +21°C° 0 mm 4 mps 741 mmHg 72%
21:00 +20°C° 0 mm 4 mps 741 mmHg 74%
22:00 +20°C° 0 mm 4 mps 741 mmHg 77%
23:00 +19°C° 0 mm 4 mps 741 mmHg 79%
Show more